Wind_Speed
22 24 25 26 28 18 14 13 12 12 11 10 10 9 9 8 7 6 6 6 5 5 4 4 4 4 4 4 4 5 6 7 7 7 8 8 8 8 7 8 9 9 9 9 9 8 8 8 7
22 22 27 30 21 13 14 14 13 14 13 12 11 10 10 9 8 7 6 6 5 5 5 4 4 4 4 4 4 5 5 6 6 6 7 8 7 7 7 8 9 9 9 9 9 8 8 7 7
25 27 30 23 13 13 14 15 15 14 14 13 13 12 11 10 9 8 7 6 6 6 6 5 4 4 4 4 4 4 5 5 5 6 6 7 7 7 8 7 8 9 9 9 8 8 7 6 6
26 31 26 17 13 15 15 15 15 15 15 15 15 14 13 12 11 11 9 8 8 7 7 6 4 3 3 4 4 3 4 5 6 6 7 7 7 8 7 8 9 10 9 9 8 7 7 6 6
27 26 19 14 14 15 16 16 16 16 15 15 16 15 15 14 13 12 11 10 9 8 7 6 4 3 4 3 3 3 4 4 5 6 6 6 7 7 8 9 9 9 8 8 8 7 7 6 6
25 19 13 11 13 14 15 16 17 16 16 16 17 16 16 15 14 13 13 11 10 9 7 7 6 4 4 3 3 3 3 4 4 5 6 6 7 8 8 9 9 9 9 8 7 7 7 6 6
21 16 12 10 12 13 15 16 16 17 17 17 17 17 16 16 15 14 14 14 12 11 9 8 7 5 4 3 3 3 4 4 4 5 6 6 7 8 8 8 8 8 8 7 7 7 7 6 5
15 13 10 9 11 13 14 16 16 17 18 18 18 18 17 17 16 15 15 15 14 12 11 9 8 7 5 3 3 3 4 4 4 4 5 5 6 7 8 8 8 8 7 6 5 6 6 6 5
11 9 9 9 10 12 13 15 17 18 18 19 19 18 17 17 16 16 16 15 15 13 12 11 9 8 6 4 3 3 3 3 3 4 4 5 5 6 7 7 7 7 7 6 5 6 5 5 5
7 7 10 10 10 11 13 16 18 18 19 18 18 18 17 17 17 17 16 16 16 15 14 12 11 9 7 5 3 2 3 3 3 3 4 5 5 5 5 6 6 6 6 6 5 5 5 5 5
5 7 9 9 10 12 14 17 17 16 17 18 18 18 17 17 17 18 17 17 16 15 15 13 12 10 8 6 4 3 2 1 2 3 4 4 4 4 4 5 5 5 5 5 5 5 4 4 4
5 6 7 7 9 11 12 14 15 15 16 17 18 18 18 17 17 18 18 17 16 15 14 14 14 12 9 8 5 4 2 1 1 3 4 4 3 4 4 4 4 4 4 4 4 4 3 4 5
2 5 6 6 8 9 11 12 14 15 16 17 18 18 19 19 18 18 18 17 17 16 15 13 13 13 12 9 7 5 3 2 1 2 2 3 3 3 3 3 3 3 4 3 4 4 4 4 5
1 2 4 5 6 8 10 11 13 14 15 17 18 19 20 19 18 18 17 17 17 16 15 14 13 12 12 11 9 7 6 3 2 2 2 2 2 2 2 2 3 3 4 4 3 3 3 4 4
2 2 3 4 5 7 8 9 10 13 14 15 17 18 19 19 18 17 17 16 16 16 16 14 13 12 12 11 10 9 7 5 4 3 2 1 1 1 1 2 2 2 3 4 3 3 3 4 4
4 4 7 7 5 4 6 8 8 11 12 14 15 16 17 18 18 17 16 16 16 16 15 14 12 12 12 11 10 10 9 7 5 4 2 1 1 1 1 1 2 3 3 4 3 3 3 4 4
7 9 11 10 7 4 4 6 8 9 11 13 14 14 15 16 16 16 16 15 16 16 15 14 12 12 12 12 11 9 9 8 6 5 4 1 0 1 1 2 3 3 3 4 4 3 3 3 3
10 12 12 11 8 4 3 6 9 9 10 11 12 13 14 14 15 15 15 15 15 15 14 14 13 12 12 11 11 10 9 8 7 5 4 3 1 1 1 2 3 3 3 4 4 4 4 4 4
13 14 12 10 9 6 6 7 9 10 11 11 10 11 13 13 13 13 14 14 14 15 14 13 12 12 12 11 10 9 9 8 7 6 5 4 3 2 1 1 2 3 4 4 4 5 5 6 5
14 14 12 10 9 7 8 9 9 10 9 11 11 10 11 11 11 13 13 14 14 14 14 13 12 11 11 11 10 10 9 9 8 7 6 5 4 3 2 2 2 3 3 4 5 5 5 5 6
15 15 13 13 11 10 10 12 12 11 10 9 10 10 10 10 11 11 11 13 13 13 14 14 12 11 11 11 11 10 9 9 8 7 6 6 5 4 3 3 3 4 4 4 4 5 5 5 5
17 15 16 15 13 13 13 15 15 14 13 11 12 11 9 9 10 9 10 11 12 12 12 13 12 11 11 11 11 11 10 9 9 8 7 7 6 6 5 5 4 4 4 4 5 5 6 6 6
19 18 18 17 16 16 16 16 14 16 15 11 10 11 9 8 9 9 9 10 11 11 11 12 12 12 11 11 11 11 10 9 9 8 8 7 7 6 6 6 6 5 4 5 5 6 7 7 7
20 19 18 17 18 19 18 16 17 16 16 16 14 12 13 9 9 10 9 9 10 10 11 11 11 11 10 11 11 11 10 9 8 8 8 8 8 8 7 7 8 7 6 5 6 7 8 8 9
21 18 17 18 20 21 18 17 18 17 18 17 16 14 14 12 11 11 9 10 10 10 10 11 11 11 11 10 11 11 10 9 8 8 8 8 8 8 9 9 9 8 7 7 7 8 8 9 10
21 20 20 20 20 20 18 18 17 16 19 19 17 17 15 13 14 12 11 10 10 11 11 11 11 12 12 11 11 11 11 10 9 8 8 9 9 9 9 10 10 10 10 9 9 9 9 10 10
22 22 20 22 21 22 21 19 20 19 20 18 17 17 16 14 14 14 13 12 11 11 11 11 11 12 12 12 12 12 12 11 10 9 9 10 10 10 10 11 11 11 11 10 10 10 10 10 10
24 22 21 22 23 23 22 21 22 20 18 16 17 18 17 16 16 16 14 13 13 12 11 12 12 13 13 13 13 13 14 13 10 10 11 11 11 11 11 12 12 12 12 11 11 11 11 11 11
23 24 24 25 24 22 22 23 21 23 22 19 18 20 18 16 16 16 16 16 15 14 13 13 14 14 14 14 14 14 14 13 12 12 12 13 13 13 13 13 13 13 13 13 13 13 13 13 13
23 23 24 26 26 25 24 25 24 24 22 20 21 19 19 19 19 19 19 19 18 16 16 16 16 16 15 15 15 15 15 15 14 14 14 14 14 14 14 15 15 16 15 15 15 16 15 15 15
Wind_Direction
64 64 61 54 48 35 30 36 35 35 40 38 36 36 36 34 29 18 14 24 34 38 51 55 73 86 98 107 128 134 139 145 146 148 155 154 155 159 160 161 160 158 155 153 151 147 150 147 143
66 64 57 51 45 20 28 36 38 37 38 36 33 34 36 37 33 25 19 21 34 45 49 64 90 95 106 120 127 137 139 144 144 147 153 154 154 155 154 157 159 157 155 153 155 152 152 149 144
63 58 56 48 32 22 31 35 36 36 36 35 32 34 36 38 39 35 30 30 43 48 47 64 88 100 108 113 127 133 139 140 143 151 159 157 154 153 156 157 156 156 150 149 156 151 153 149 149
61 56 54 45 27 30 31 33 34 38 37 36 36 37 37 40 42 41 39 39 45 46 47 58 68 91 109 108 114 124 133 141 146 153 157 159 160 159 160 161 162 159 156 157 156 150 151 147 149
60 57 48 34 26 32 31 33 34 36 39 39 39 39 39 41 42 42 44 43 46 48 50 57 57 83 100 118 121 127 131 142 153 155 154 154 159 165 163 162 166 162 159 159 155 145 141 142 148
60 57 50 30 26 34 34 34 36 37 40 40 41 40 40 42 43 43 44 46 46 48 49 53 59 80 91 107 132 128 132 139 146 151 153 148 155 160 161 160 161 159 151 151 154 148 143 144 145
71 61 53 36 27 33 37 38 36 38 41 42 42 42 42 43 44 44 45 46 46 50 53 54 57 64 83 97 116 126 133 130 141 143 147 150 145 152 156 159 156 150 148 148 151 150 151 149 145
70 65 59 44 36 36 36 40 41 42 41 41 41 42 42 43 45 45 45 45 46 50 55 58 59 63 70 92 109 124 136 137 136 137 136 148 150 149 154 156 155 154 152 151 150 150 148 153 152
70 65 58 46 39 37 36 42 42 41 41 40 41 43 43 43 45 45 44 44 47 49 49 51 55 59 69 82 93 122 135 137 132 138 138 145 151 146 148 146 150 154 154 154 153 146 147 156 157
60 60 53 47 45 40 40 44 43 37 37 38 40 41 43 45 45 46 46 45 46 45 46 47 47 52 60 70 72 106 153 153 153 143 147 148 143 138 141 140 146 157 158 155 155 150 148 151 153
34 50 50 41 45 38 37 41 41 35 33 34 37 39 41 43 45 46 46 45 44 43 44 44 44 45 52 59 67 92 135 158 150 146 147 148 139 129 137 137 142 156 164 158 154 151 148 150 149
37 33 46 35 36 38 40 41 36 34 33 34 37 38 40 42 43 45 45 44 43 41 42 42 40 38 39 45 53 63 73 72 119 141 139 143 136 128 138 141 141 156 160 163 160 147 144 155 159
52 25 30 24 26 29 33 37 32 30 30 33 35 36 38 40 41 43 44 43 42 40 38 39 39 39 37 38 42 44 39 42 97 130 133 137 135 138 144 147 150 164 173 175 166 165 169 168 162
284 26 7 9 6 19 29 29 23 25 26 30 32 33 35 37 39 41 42 42 41 38 36 37 38 39 38 38 38 38 40 41 57 82 121 137 151 160 157 156 181 183 180 184 180 180 177 178 176
257 325 319 327 349 5 18 12 14 16 22 27 29 30 31 33 35 38 40 39 39 37 37 36 36 37 38 38 36 35 42 53 63 58 88 131 147 157 142 164 186 202 198 200 197 191 188 181 185
238 266 272 278 311 350 9 355 1 5 10 20 24 27 28 29 32 34 35 35 36 35 35 36 37 37 38 39 37 37 41 51 58 59 62 62 156 179 198 191 204 213 211 209 209 203 196 197 199
238 252 257 272 287 316 353 333 344 354 1 12 16 19 25 26 28 29 31 31 31 31 31 33 35 36 38 40 40 43 43 44 50 51 54 54 260 260 252 237 231 238 231 226 218 218 224 224 223
244 244 250 265 273 266 296 307 320 340 347 359 4 10 17 21 24 24 25 27 26 27 28 30 33 35 35 37 39 43 44 41 41 44 44 38 18 305 252 272 263 253 244 231 229 236 240 243 247
247 259 253 261 271 269 267 279 301 322 332 339 348 359 3 11 17 19 20 22 22 22 23 23 27 30 32 33 33 35 36 33 30 31 30 20 11 3 339 304 274 266 262 246 245 256 253 250 253
243 257 267 265 279 278 265 273 277 296 315 320 336 346 350 360 9 13 15 17 17 18 19 19 21 24 26 28 28 29 30 30 30 31 26 21 16 6 325 306 312 299 274 255 254 264 257 254 253
239 248 258 263 267 273 271 275 274 273 282 297 313 322 335 346 0 8 11 12 10 12 14 15 17 19 20 20 20 19 21 26 28 30 27 21 19 7 355 334 319 307 298 273 263 266 260 254 254
239 243 246 250 257 267 264 267 272 274 277 290 302 304 320 336 345 357 1 4 4 7 9 10 12 13 15 14 12 10 13 19 24 22 18 17 16 7 357 348 338 321 305 282 271 271 269 268 269
237 236 239 245 249 253 260 266 272 280 278 282 289 296 299 316 326 339 350 353 355 359 2 4 5 5 6 7 7 7 8 9 11 12 10 7 3 359 351 347 339 327 311 292 285 276 278 279 278
237 237 241 244 250 253 253 257 263 268 279 280 276 288 289 296 308 318 330 341 343 347 351 354 355 357 357 359 2 4 3 1 2 3 2 1 359 357 349 338 336 329 321 303 290 289 288 283 281
237 235 242 247 251 254 252 250 258 266 274 279 281 283 288 286 290 299 313 326 329 332 337 341 344 347 349 347 348 350 351 352 352 352 354 354 353 350 347 338 330 323 316 308 299 296 294 291 286
233 231 238 247 255 262 260 257 253 252 261 270 273 276 281 288 290 293 303 308 314 320 324 328 336 338 338 338 336 336 336 335 336 340 341 343 344 343 342 339 330 323 318 312 303 299 295 295 293
232 228 237 250 258 266 265 258 249 239 250 261 260 265 276 282 283 284 291 293 301 310 315 317 323 327 330 331 331 330 329 324 320 326 334 335 336 333 331 331 328 327 324 318 311 307 299 296 296
233 232 235 240 249 256 265 265 264 260 253 251 254 260 273 274 277 281 283 286 290 293 303 309 312 316 320 323 322 323 323 321 316 319 323 326 327 328 327 326 325 323 321 318 311 307 304 297 297
239 233 231 234 236 247 258 262 265 270 268 262 258 263 266 268 267 269 273 276 282 289 295 302 303 306 311 314 315 316 320 324 320 314 314 316 320 321 322 320 322 321 317 315 311 305 305 305 304
240 235 235 238 237 237 248 257 262 267 270 263 250 249 256 260 262 265 266 272 281 285 288 292 294 297 302 304 308 309 310 313 314 312 312 312 313 314 316 320 320 318 315 309 307 304 303 303 300
Height
5894 5892 5890 5888 5885 5889 5887 5885 5883 5881 5879 5877 5875 5873 5872 5871 5871 5871 5868 5866 5866 5864 5864 5864 5863 5863 5864 5864 5864 5865 5866 5866 5867 5868 5869 5870 5871 5872 5872 5873 5874 5876 5877 5878 5879 5881 5882 5883 5884
5898 5896 5891 5889 5893 5893 5890 5888 5885 5883 5881 5879 5877 5875 5873 5872 5871 5869 5867 5867 5866 5865 5865 5864 5863 5864 5865 5865 5865 5866 5867 5867 5868 5869 5870 5870 5872 5873 5873 5874 5875 5877 5878 5879 5880 5881 5883 5884 5885
5900 5896 5893 5898 5900 5896 5893 5890 5888 5885 5883 5881 5879 5877 5875 5873 5872 5870 5869 5868 5867 5866 5866 5865 5865 5865 5866 5866 5867 5868 5868 5868 5869 5870 5870 5871 5872 5873 5874 5875 5876 5877 5879 5880 5881 5882 5883 5884 5885
5901 5897 5901 5905 5902 5899 5896 5893 5890 5888 5885 5883 5881 5879 5876 5875 5873 5872 5870 5868 5868 5867 5867 5866 5866 5867 5867 5867 5868 5869 5869 5870 5870 5871 5871 5872 5873 5874 5875 5876 5877 5878 5879 5881 5882 5883 5884 5885 5886
5902 5903 5908 5908 5905 5902 5899 5896 5893 5890 5888 5885 5883 5881 5878 5877 5875 5873 5871 5870 5869 5868 5868 5867 5867 5868 5868 5868 5869 5870 5870 5871 5871 5871 5872 5872 5873 5874 5875 5877 5878 5879 5880 5882 5883 5884 5885 5886 5886
5904 5910 5914 5911 5908 5905 5902 5898 5896 5893 5890 5887 5885 5883 5881 5879 5877 5875 5873 5872 5871 5870 5869 5868 5868 5869 5869 5869 5870 5870 5871 5871 5872 5872 5873 5873 5874 5875 5876 5877 5879 5880 5881 5882 5884 5885 5886 5887 5887
5913 5915 5916 5914 5911 5907 5905 5901 5898 5895 5893 5890 5888 5885 5883 5881 5879 5877 5875 5874 5872 5871 5871 5870 5870 5869 5870 5870 5871 5871 5872 5872 5873 5873 5874 5875 5875 5876 5877 5878 5879 5881 5882 5883 5884 5885 5886 5887 5888
5917 5918 5918 5916 5913 5910 5907 5904 5901 5898 5895 5893 5890 5888 5886 5884 5881 5879 5877 5876 5874 5873 5873 5872 5872 5871 5871 5871 5872 5872 5873 5873 5874 5874 5875 5875 5876 5877 5878 5879 5880 5882 5883 5884 5885 5886 5887 5888 5889
5921 5921 5919 5918 5915 5913 5909 5907 5904 5901 5898 5896 5893 5891 5889 5886 5884 5882 5880 5878 5877 5876 5875 5874 5874 5873 5873 5873 5873 5873 5873 5874 5874 5875 5876 5876 5877 5878 5879 5880 5881 5883 5884 5885 5886 5887 5887 5888 5889
5923 5922 5921 5920 5917 5915 5912 5909 5906 5904 5901 5899 5896 5894 5891 5889 5887 5884 5883 5881 5879 5878 5877 5876 5876 5875 5874 5873 5874 5874 5874 5874 5875 5876 5876 5877 5878 5879 5880 5881 5882 5883 5884 5885 5886 5887 5888 5889 5890
5924 5923 5922 5921 5919 5917 5914 5912 5909 5907 5905 5902 5899 5897 5894 5891 5889 5887 5885 5883 5882 5881 5880 5879 5878 5877 5876 5875 5875 5875 5875 5875 5876 5876 5877 5878 5879 5880 5881 5882 5883 5884 5885 5886 5887 5888 5889 5889 5890
5926 5925 5924 5923 5921 5919 5917 5915 5913 5910 5908 5905 5902 5899 5897 5894 5892 5890 5888 5886 5885 5883 5882 5881 5880 5879 5878 5878 5877 5877 5877 5877 5877 5878 5878 5879 5880 5881 5882 5883 5884 5885 5885 5886 5887 5888 5889 5890 5890
5928 5927 5926 5924 5923 5921 5919 5917 5915 5913 5910 5907 5904 5902 5899 5896 5894 5892 5890 5889 5887 5886 5885 5883 5882 5881 5880 5879 5879 5878 5878 5878 5878 5879 5879 5880 5881 5882 5882 5883 5884 5885 5886 5887 5888 5889 5890 5890 5891
5928 5928 5927 5926 5925 5922 5921 5919 5917 5915 5912 5910 5907 5904 5902 5899 5897 5895 5893 5892 5890 5888 5887 5886 5885 5883 5882 5881 5880 5880 5879 5879 5879 5879 5880 5881 5881 5882 5883 5884 5885 5885 5886 5887 5888 5889 5890 5890 5891
5928 5928 5928 5926 5925 5924 5923 5920 5919 5917 5914 5912 5909 5907 5904 5902 5900 5898 5896 5895 5893 5891 5889 5888 5887 5886 5885 5884 5882 5881 5880 5880 5880 5880 5881 5881 5882 5883 5884 5885 5885 5885 5886 5887 5888 5889 5890 5890 5891
5927 5928 5927 5925 5925 5924 5924 5922 5920 5919 5916 5913 5912 5909 5907 5905 5903 5901 5899 5897 5895 5894 5892 5890 5889 5888 5887 5886 5884 5883 5883 5882 5882 5882 5882 5882 5883 5884 5884 5885 5885 5886 5887 5887 5888 5889 5889 5890 5890
5926 5927 5926 5925 5925 5925 5925 5923 5921 5919 5917 5915 5913 5911 5909 5907 5905 5903 5901 5899 5898 5896 5894 5892 5891 5890 5888 5887 5886 5885 5885 5884 5884 5883 5883 5883 5883 5884 5884 5884 5885 5886 5886 5887 5888 5888 5889 5889 5890
5926 5925 5925 5924 5923 5924 5925 5924 5920 5919 5918 5916 5914 5912 5911 5909 5907 5905 5903 5902 5900 5898 5896 5895 5893 5892 5891 5889 5888 5888 5887 5886 5885 5885 5884 5884 5884 5884 5884 5884 5885 5885 5886 5886 5887 5888 5888 5889 5889
5924 5923 5923 5923 5921 5923 5924 5924 5921 5919 5919 5917 5915 5914 5912 5910 5908 5906 5904 5903 5902 5900 5898 5897 5895 5894 5893 5891 5890 5889 5888 5887 5887 5886 5885 5885 5885 5884 5884 5885 5885 5885 5886 5886 5886 5887 5887 5888 5888
5922 5922 5922 5922 5922 5923 5923 5923 5920 5920 5918 5918 5916 5914 5913 5911 5909 5907 5906 5904 5903 5901 5900 5898 5897 5895 5894 5893 5892 5891 5890 5889 5888 5887 5886 5886 5885 5885 5885 5885 5885 5885 5885 5885 5885 5886 5886 5886 5887
5920 5921 5922 5921 5921 5922 5922 5921 5920 5918 5917 5916 5916 5914 5912 5911 5910 5908 5907 5906 5904 5903 5901 5900 5898 5897 5896 5894 5893 5892 5891 5890 5889 5888 5887 5886 5886 5885 5885 5885 5885 5885 5884 5884 5884 5884 5884 5885 5885
5917 5919 5920 5919 5920 5920 5920 5919 5917 5916 5915 5914 5914 5912 5910 5910 5909 5909 5907 5906 5905 5903 5902 5901 5899 5898 5897 5895 5894 5893 5892 5891 5890 5889 5888 5887 5886 5886 5885 5885 5884 5884 5883 5883 5883 5883 5883 5884 5884
5913 5914 5916 5917 5917 5917 5917 5916 5915 5914 5913 5911 5911 5910 5909 5909 5909 5908 5907 5906 5905 5904 5903 5901 5900 5899 5897 5896 5895 5894 5892 5892 5891 5890 5889 5887 5886 5886 5885 5884 5883 5883 5882 5883 5882 5882 5882 5882 5882
5908 5910 5911 5913 5914 5914 5914 5915 5912 5912 5911 5910 5909 5908 5908 5908 5907 5907 5907 5905 5904 5903 5903 5901 5900 5899 5897 5896 5895 5894 5893 5892 5891 5890 5889 5888 5887 5886 5885 5884 5883 5882 5881 5881 5881 5881 5880 5880 5880
5904 5906 5908 5909 5910 5910 5911 5911 5911 5910 5910 5907 5906 5906 5906 5906 5905 5904 5905 5905 5904 5903 5902 5901 5900 5898 5897 5896 5895 5894 5893 5892 5891 5890 5889 5888 5887 5886 5885 5884 5882 5881 5880 5880 5879 5879 5878 5878 5878
5899 5903 5905 5906 5907 5906 5907 5907 5908 5907 5907 5906 5906 5904 5904 5904 5903 5903 5902 5903 5902 5902 5901 5900 5899 5898 5897 5896 5895 5894 5893 5892 5890 5890 5889 5888 5887 5886 5884 5883 5882 5880 5879 5878 5877 5877 5876 5876 5875
5893 5897 5901 5903 5903 5903 5902 5903 5903 5900 5902 5902 5902 5902 5902 5901 5900 5901 5900 5900 5900 5900 5899 5898 5898 5897 5896 5895 5893 5892 5891 5890 5890 5888 5888 5887 5886 5884 5883 5882 5880 5879 5877 5876 5875 5874 5874 5873 5873
5889 5892 5896 5897 5899 5900 5899 5898 5898 5895 5896 5896 5897 5899 5899 5898 5898 5898 5897 5897 5897 5897 5897 5896 5896 5895 5894 5893 5892 5891 5890 5888 5888 5887 5886 5885 5884 5883 5882 5880 5879 5877 5876 5875 5874 5872 5871 5871 5870
5884 5886 5888 5891 5893 5895 5896 5896 5893 5893 5892 5892 5894 5894 5892 5893 5894 5894 5893 5893 5893 5893 5893 5894 5894 5893 5893 5891 5890 5889 5888 5887 5886 5885 5885 5884 5882 5881 5879 5878 5877 5875 5874 5873 5872 5870 5869 5868 5867
5878 5880 5883 5885 5886 5888 5890 5891 5888 5888 5887 5886 5886 5887 5888 5889 5890 5889 5888 5889 5891 5891 5890 5891 5891 5890 5890 5889 5888 5887 5886 5885 5884 5883 5882 5881 5880 5878 5877 5875 5874 5872 5871 5870 5869 5868 5866 5865 5864